Location: Ammerl�gen
(47.2167°N, 9.6000°E)
Time: 11:11:52
(UTC+00:00)

CZ-4 R/B DEB - Pass Details

Date: 19 October 2021
Orbit: 738 x 791 km, 98.5° (Epoch: 26 November)

Event Time Altitude Azimuth Distance (km) Brightness Sun altitude
Exits shadow 17:02:15 - 84° (E) 2,403 ? -6.8°
Reaches altitude 10° 17:03:07 10° 75° (ENE) 2,253 ? -6.9°
Maximum altitude 17:04:54 12° 54° (NE) 2,122 ? -7.2°
Drops below altitude 10° 17:06:41 10° 33° (NNE) 2,257 ? -7.5°
Sets 17:10:28 0° 3° (N) 3,188 ? -8.2°
